CW0214 Weather Reports


time (UTC)temp
C
wind
direction
speed
KPH
gust
KPH
rain 1hr
cm
rain 24hr
cm
rain mn
cm
humidity
%
barometer
mb
20180424155903 29 247 4.8 11.3 0.00 0.00 0.00 38 1010.9
20180424155403 29 42 0.0 0.0 0.00 0.00 0.00 35 1011.0
20180424154903 28 46 0.0 8.0 0.00 0.00 0.00 35 1011.0
20180424154402 28 111 0.0 8.0 0.00 0.00 0.00 37 1011.0
20180424153903 28 118 3.2 8.0 0.00 0.00 0.00 35 1011.0
20180424153402 28 76 4.8 8.0 0.00 0.00 0.00 36 1011.1
20180424152902 28 112 0.0 0.0 0.00 0.00 0.00 35 1011.1
20180424152403 28 112 0.0 4.8 0.00 0.00 0.00 36 1011.2
20180424151903 28 117 3.2 8.0 0.00 0.00 0.00 36 1011.2
20180424151408 28 92 4.8 9.7 0.00 0.00 0.00 36 1011.2
20180424150902 29 119 8.0 12.9 0.00 0.00 0.00 37 1011.2
20180424150403 29 151 4.8 9.7 0.00 0.00 0.00 39 1011.2
20180424145903 30 344 1.6 8.0 0.00 0.00 0.00 38 1011.4
20180424145403 30 20 3.2 8.0 0.00 0.00 0.00 38 1011.4
20180424144903 30 12 1.6 9.7 0.00 0.00 0.00 41 1011.4
20180424144402 30 30 8.0 14.5 0.00 0.00 0.00 39 1011.4
20180424143903 30 53 4.8 11.3 0.00 0.00 0.00 38 1011.4
20180424143403 30 298 3.2 14.5 0.00 0.00 0.00 37 1011.4
20180424142903 30 310 3.2 14.5 0.00 0.00 0.00 38 1011.5
20180424142402 30 282 8.0 14.5 0.00 0.00 0.00 38 1011.6
20180424141903 30 6 4.8 14.5 0.00 0.00 0.00 37 1011.7
20180424141403 30 260 0.0 0.0 0.00 0.00 0.00 34 1011.7
20180424140903 30 278 1.6 9.7 0.00 0.00 0.00 34 1011.8
20180424140402 30 220 4.8 19.3 0.00 0.00 0.00 34 1011.9
20180424135903 30 58 8.0 12.9 0.00 0.00 0.00 33 1011.9
20180424135402 30 276 3.2 16.1 0.00 0.00 0.00 34 1011.9
20180424134902 29 70 4.8 12.9 0.00 0.00 0.00 34 1012.0
20180424134403 30 339 3.2 12.9 0.00 0.00 0.00 33 1012.0
20180424133903 30 278 4.8 14.5 0.00 0.00 0.00 33 1012.0
20180424133403 30 212 4.8 14.5 0.00 0.00 0.00 33 1012.0
20180424132903 30 33 4.8 11.3 0.00 0.00 0.00 33 1012.0
20180424132402 29 253 1.6 9.7 0.00 0.00 0.00 33 1012.1
20180424131903 28 139 1.6 9.7 0.00 0.00 0.00 33 1012.2
20180424131403 29 27 9.7 12.9 0.00 0.00 0.00 33 1012.4
20180424130902 29 39 4.8 11.3 0.00 0.00 0.00 33 1012.3
20180424130403 28 351 6.4 12.9 0.00 0.00 0.00 32 1012.4
20180424125903 28 44 4.8 14.5 0.00 0.00 0.00 33 1012.4
20180424125402 28 76 9.7 14.5 0.00 0.00 0.00 33 1012.4
20180424124903 28 45 4.8 14.5 0.00 0.00 0.00 33 1012.4
20180424124402 28 350 8.0 22.5 0.00 0.00 0.00 33 1012.5
20180424123903 28 303 9.7 16.1 0.00 0.00 0.00 33 1012.5
20180424123403 28 348 8.0 19.3 0.00 0.00 0.00 33 1012.5
20180424122902 28 357 3.2 12.9 0.00 0.00 0.00 34 1012.5
20180424122403 28 99 8.0 16.1 0.00 0.00 0.00 33 1012.6
20180424121902 28 350 1.6 12.9 0.00 0.00 0.00 34 1012.5
20180424121402 28 348 3.2 16.1 0.00 0.00 0.00 33 1012.6
20180424120902 27 122 1.6 9.7 0.00 0.00 0.00 34 1012.6
20180424120402 27 67 11.3 25.7 0.00 0.00 0.00 35 1012.8
20180424115903 27 118 12.9 24.1 0.00 0.00 0.00 35 1012.8
20180424115402 27 108 3.2 11.3 0.00 0.00 0.00 34 1012.9
20180424114903 27 160 1.6 9.7 0.00 0.00 0.00 34 1012.9
20180424114403 26 127 8.0 14.5 0.00 0.00 0.00 35 1012.9
20180424113903 26 95 4.8 20.9 0.00 0.00 0.00 34 1013.0
20180424113402 26 59 4.8 12.9 0.00 0.00 0.00 34 1013.0
20180424112902 26 22 9.7 19.3 0.00 0.00 0.00 34 1013.0
20180424112402 26 127 11.3 19.3 0.00 0.00 0.00 34 1013.1
20180424111902 26 110 11.3 19.3 0.00 0.00 0.00 35 1013.2
20180424111403 26 76 4.8 14.5 0.00 0.00 0.00 34 1013.3
20180424110903 25 148 6.4 14.5 0.00 0.00 0.00 35 1013.4
20180424110403 25 104 4.8 16.1 0.00 0.00 0.00 36 1013.3
20180424105902 25 116 8.0 14.5 0.00 0.00 0.00 35 1013.4
20180424105403 25 126 8.0 14.5 0.00 0.00 0.00 35 1013.4
20180424104903 25 113 9.7 19.3 0.00 0.00 0.00 35 1013.6
20180424104402 24 96 11.3 19.3 0.00 0.00 0.00 35 1013.6
20180424103903 24 99 11.3 20.9 0.00 0.00 0.00 35 1013.6
20180424103403 24 104 16.1 22.5 0.00 0.00 0.00 34 1013.6
20180424102903 24 88 16.1 24.1 0.00 0.00 0.00 34 1013.6
20180424102403 24 121 14.5 22.5 0.00 0.00 0.00 35 1013.7
20180424101903 24 113 12.9 19.3 0.00 0.00 0.00 34 1013.7
20180424101403 24 35 14.5 25.7 0.00 0.00 0.00 34 1013.7
20180424100903 24 91 16.1 25.7 0.00 0.00 0.00 34 1013.7
20180424100403 24 101 12.9 22.5 0.00 0.00 0.00 33 1013.7
20180424095902 24 143 8.0 19.3 0.00 0.00 0.00 35 1013.7
20180424095403 23 119 11.3 24.1 0.00 0.00 0.00 34 1013.7
20180424094903 24 120 4.8 19.3 0.00 0.00 0.00 34 1013.7
20180424094403 24 105 6.4 19.3 0.00 0.00 0.00 34 1013.6
20180424093903 25 95 4.8 16.1 0.00 0.00 0.00 34 1013.5
20180424093403 24 343 4.8 9.7 0.00 0.00 0.00 34 1013.5
20180424092902 23 99 4.8 12.9 0.00 0.00 0.00 34 1013.6
20180424092403 24 178 4.8 14.5 0.00 0.00 0.00 35 1013.5
20180424091902 24 165 1.6 12.9 0.00 0.00 0.00 35 1013.5
20180424091403 24 18 1.6 12.9 0.00 0.00 0.00 36 1013.5
20180424090902 23 297 4.8 12.9 0.00 0.00 0.00 35 1013.5
20180424090403 23 161 1.6 8.0 0.00 0.00 0.00 36 1013.5
20180424085902 23 28 3.2 16.1 0.00 0.00 0.00 38 1013.5
20180424085402 22 29 6.4 14.5 0.00 0.00 0.00 39 1013.5
20180424084903 22 33 3.2 11.3 0.00 0.00 0.00 42 1013.3
20180424084405 22 90 4.8 11.3 0.00 0.00 0.00 44 1013.4
20180424083904 22 30 3.2 4.8 0.00 0.00 0.00 42 1013.3
20180424083403 22 39 4.8 16.1 0.00 0.00 0.00 41 1013.2
20180424082903 22 70 4.8 12.9 0.00 0.00 0.00 42 1013.3
20180424082403 21 73 3.2 14.5 0.00 0.00 0.00 44 1013.2
20180424081903 21 108 4.8 14.5 0.00 0.00 0.00 45 1013.3
20180424081403 21 88 4.8 8.0 0.00 0.00 0.00 46 1013.2
20180424080903 21 94 4.8 12.9 0.00 0.00 0.00 46 1013.2
20180424080403 21 120 4.8 11.3 0.00 0.00 0.00 45 1013.2
20180424075903 21 107 4.8 11.3 0.00 0.00 0.00 44 1013.2
20180424075403 21 121 4.8 11.3 0.00 0.00 0.00 45 1013.2
20180424074902 20 85 0.0 0.0 0.00 0.00 0.00 52 1013.2
20180424074403 20 138 0.0 0.0 0.00 0.00 0.00 64 1013.1
20180424073903 19 146 0.0 0.0 0.00 0.00 0.00 68 1013.1
20180424073403 20 146 0.0 0.0 0.00 0.00 0.00 65 1013.0
20180424072903 20 146 3.2 9.7 0.00 0.00 0.00 60 1012.9
20180424072402 21 120 4.8 11.3 0.00 0.00 0.00 47 1012.7
20180424071903 21 49 0.0 0.0 0.00 0.00 0.00 46 1012.7
20180424071403 21 49 1.6 11.3 0.00 0.00 0.00 46 1012.6
20180424070903 21 42 4.8 9.7 0.00 0.00 0.00 46 1012.5
20180424070403 20 41 4.8 8.0 0.00 0.00 0.00 47 1012.3
20180424065903 20 17 1.6 8.0 0.00 0.00 0.00 50 1012.3
20180424065403 20 14 1.6 4.8 0.00 0.00 0.00 53 1012.3
20180424064902 20 13 3.2 9.7 0.00 0.00 0.00 57 1012.1
20180424064403 19 3 3.2 9.7 0.00 0.00 0.00 58 1012.1
20180424063903 19 7 1.6 9.7 0.00 0.00 0.00 59 1012.1
20180424063403 18 3 0.0 1.6 0.00 0.00 0.00 61 1012.1
20180424062903 18 3 0.0 0.0 0.00 0.00 0.00 64 1012.1
20180424062403 19 4 0.0 0.0 0.00 0.00 0.00 61 1012.0
20180424061903 20 3 0.0 0.0 0.00 0.00 0.00 57 1012.0
20180424061404 20 4 0.0 3.2 0.00 0.00 0.00 58 1011.9
20180424060903 20 3 4.8 8.0 0.00 0.00 0.00 58 1011.8
20180424060403 20 2 4.8 8.0 0.00 0.00 0.00 58 1011.8
20180424055903 20 3 4.8 9.7 0.00 0.00 0.00 58 1011.7
20180424055403 20 22 4.8 11.3 0.00 0.00 0.00 57 1011.6
20180424054903 20 26 1.6 3.2 0.00 0.00 0.00 57 1011.6
20180424054402 20 25 1.6 8.0 0.00 0.00 0.00 57 1011.6
20180424053903 20 36 4.8 9.7 0.00 0.00 0.00 57 1011.5
20180424053403 20 34 1.6 9.7 0.00 0.00 0.00 58 1011.5
20180424052902 20 22 0.0 8.0 0.00 0.00 0.00 59 1011.5
20180424052403 19 36 4.8 11.3 0.00 0.00 0.00 60 1011.5
20180424051903 18 37 3.2 12.9 0.00 0.00 0.00 61 1011.5
20180424051403 18 20 3.2 11.3 0.00 0.00 0.00 65 1011.5
20180424050903 17 38 8.0 11.3 0.00 0.00 0.00 69 1011.5
20180424050403 17 17 1.6 8.0 0.00 0.00 0.00 76 1011.5
20180424045903 17 17 0.0 1.6 0.00 0.00 0.00 78 1011.5
20180424045403 17 17 0.0 0.0 0.00 0.00 0.00 78 1011.5
20180424044903 17 17 0.0 0.0 0.00 0.00 0.00 79 1011.5
20180424044403 17 17 0.0 0.0 0.00 0.00 0.00 80 1011.4
20180424043903 17 17 0.0 0.0 0.00 0.00 0.00 79 1011.4
20180424043403 17 17 0.0 0.0 0.00 0.00 0.00 78 1011.4
20180424042903 17 17 0.0 0.0 0.00 0.00 0.00 77 1011.4
20180424042402 17 17 0.0 0.0 0.00 0.00 0.00 77 1011.3
20180424041903 17 17 0.0 0.0 0.00 0.00 0.00 76 1011.2
20180424041403 18 17 0.0 0.0 0.00 0.00 0.00 76 1011.1
20180424040903 18 17 0.0 0.0 0.00 0.00 0.00 74 1011.1
20180424040403 18 17 1.6 4.8 0.00 0.00 0.00 72 1011.1
20180424035902 18 16 1.6 3.2 0.00 0.00 0.00 73 1011.1
20180424035403 18 16 0.0 0.0 0.00 0.00 0.00 73 1011.1
20180424034903 18 16 0.0 0.0 0.00 0.00 0.00 75 1011.1
20180424034403 18 16 0.0 0.0 0.00 0.00 0.00 75 1011.2
20180424033903 18 16 0.0 4.8 0.00 0.00 0.00 74 1011.3
20180424033403 18 16 4.8 8.0 0.00 0.00 0.00 73 1011.3
20180424032902 18 13 4.8 8.0 0.00 0.00 0.00 73 1011.3
20180424032403 18 13 4.8 8.0 0.00 0.00 0.00 73 1011.4
20180424031903 18 7 4.8 8.0 0.00 0.00 0.00 74 1011.4
20180424031403 18 11 6.4 9.7 0.00 0.00 0.00 75 1011.5
20180424030903 17 11 0.0 4.8 0.00 0.00 0.00 76 1011.6
20180424030403 18 11 0.0 0.0 0.00 0.00 0.00 75 1011.6
20180424025903 18 11 0.0 4.8 0.00 0.00 0.00 74 1011.6
20180424025403 17 11 4.8 8.0 0.00 0.00 0.00 76 1011.6
20180424024903 17 17 0.0 0.0 0.00 0.00 0.00 79 1011.7
20180424024403 17 17 0.0 0.0 0.00 0.00 0.00 78 1011.8
20180424023903 18 17 0.0 0.0 0.00 0.00 0.00 74 1011.7
20180424023403 18 17 3.2 9.7 0.00 0.00 0.00 72 1011.7
20180424022903 17 17 1.6 8.0 0.00 0.00 0.00 74 1011.7
20180424022403 18 18 0.0 4.8 0.00 0.00 0.00 73 1011.8
20180424021903 18 18 4.8 11.3 0.00 0.00 0.00 69 1011.6
20180424021404 18 13 8.0 11.3 0.00 0.00 0.00 68 1011.7
20180424020903 18 6 8.0 11.3 0.00 0.00 0.00 68 1011.9
20180424020403 18 355 3.2 8.0 0.00 0.00 0.00 70 1012.0
20180424015903 18 355 0.0 0.0 0.00 0.00 0.00 74 1012.1
20180424015403 18 355 0.0 0.0 0.00 0.00 0.00 71 1012.0
20180424014903 19 355 0.0 8.0 0.00 0.00 0.00 66 1012.0
20180424014403 19 354 4.8 9.7 0.00 0.00 0.00 65 1012.0
20180424013903 19 358 4.8 11.3 0.00 0.00 0.00 66 1012.0
20180424013403 19 13 0.0 4.8 0.00 0.00 0.00 67 1012.0
20180424012903 19 1 1.6 8.0 0.00 0.00 0.00 66 1012.0
20180424012403 19 3 1.6 9.7 0.00 0.00 0.00 65 1012.0
20180424011903 19 10 6.4 14.5 0.00 0.00 0.00 66 1012.0
20180424011403 19 5 4.8 12.9 0.00 0.00 0.00 65 1012.0
20180424010903 19 11 8.0 12.9 0.00 0.00 0.00 66 1012.1
20180424010403 19 355 8.0 9.7 0.00 0.00 0.00 66 1012.1
20180424005903 19 355 0.0 0.0 0.00 0.00 0.00 66 1012.1
20180424005403 20 355 0.0 8.0 0.00 0.00 0.00 66 1012.1
20180424004903 20 355 1.6 9.7 0.00 0.00 0.00 65 1012.1
20180424004403 20 349 6.4 11.3 0.00 0.00 0.00 65 1012.1
20180424003903 20 296 6.4 12.9 0.00 0.00 0.00 65 1012.1
20180424003403 20 285 3.2 8.0 0.00 0.00 0.00 66 1012.2
20180424002903 20 285 3.2 8.0 0.00 0.00 0.00 66 1012.3
20180424002403 20 285 3.2 8.0 0.00 0.00 0.00 66 1012.4
20180424001903 20 284 4.8 9.7 0.00 0.00 0.00 66 1012.4
20180424001403 20 284 1.6 8.0 0.00 0.00 0.00 66 1012.4
20180424000903 20 284 0.0 4.8 0.00 0.00 0.00 65 1012.5
20180424000403 20 284 0.0 8.0 0.00 0.00 0.00 66 1012.5
20180423235903 20 284 0.0 4.8 0.00 0.00 0.00 65 1012.4
20180423235403 20 284 3.2 8.0 0.00 0.00 0.00 65 1012.5
20180423234903 20 284 0.0 4.8 0.00 0.00 0.00 65 1012.4
20180423234404 20 284 0.0 4.8 0.00 0.00 0.00 65 1012.4
20180423233903 20 284 0.0 3.2 0.00 0.00 0.00 66 1012.3
20180423233403 20 284 3.2 9.7 0.00 0.00 0.00 66 1012.3
20180423232903 20 284 0.0 4.8 0.00 0.00 0.00 67 1012.3
20180423232403 20 284 0.0 4.8 0.00 0.00 0.00 68 1012.3
20180423231903 20 284 4.8 9.7 0.00 0.00 0.00 68 1012.3
20180423231403 20 284 1.6 8.0 0.00 0.00 0.00 68 1012.4
20180423230903 20 284 0.0 3.2 0.00 0.00 0.00 68 1012.5
20180423230403 20 284 1.6 4.8 0.00 0.00 0.00 68 1012.6
20180423225903 20 284 0.0 1.6 0.00 0.00 0.00 68 1012.6
20180423225404 20 284 0.0 0.0 0.00 0.00 0.00 67 1012.6
20180423224903 20 284 3.2 8.0 0.00 0.00 0.00 68 1012.6
20180423224403 20 284 0.0 1.6 0.00 0.00 0.00 68 1012.6
20180423223903 20 284 0.0 0.0 0.00 0.00 0.00 69 1012.6
20180423223403 20 284 0.0 0.0 0.00 0.00 0.00 68 1012.6
20180423222903 20 284 0.0 0.0 0.00 0.00 0.00 68 1012.6
20180423222403 20 284 1.6 4.8 0.00 0.00 0.00 68 1012.7
20180423221903 20 284 0.0 0.0 0.00 0.00 0.00 67 1012.7
20180423221404 20 284 0.0 0.0 0.00 0.00 0.00 67 1012.6
20180423220903 20 284 1.6 4.8 0.00 0.00 0.00 67 1012.6
20180423220403 20 284 0.0 0.0 0.00 0.00 0.00 67 1012.7
20180423215903 20 284 0.0 3.2 0.00 0.00 0.00 67 1012.7
20180423215403 20 284 1.6 3.2 0.00 0.00 0.00 67 1012.7
20180423214903 20 284 0.0 0.0 0.00 0.00 0.00 67 1012.7
20180423214403 20 284 0.0 4.8 0.00 0.00 0.00 67 1012.7
20180423213903 20 284 3.2 11.3 0.00 0.00 0.00 68 1012.7
20180423213403 21 240 0.0 4.8 0.00 0.00 0.00 68 1012.7
20180423212903 21 240 1.6 4.8 0.00 0.00 0.00 67 1012.7
20180423212403 21 240 0.0 9.7 0.00 0.00 0.00 67 1012.7
20180423211903 21 238 1.6 11.3 0.00 0.00 0.00 66 1012.6
20180423211403 21 223 0.0 9.7 0.00 0.00 0.00 66 1012.6
20180423210903 21 239 1.6 9.7 0.00 0.00 0.00 66 1012.6
20180423210404 21 273 4.8 9.7 0.00 0.00 0.00 66 1012.6
20180423205904 21 244 0.0 12.9 0.00 0.00 0.00 66 1012.5
20180423205403 21 240 1.6 11.3 0.00 0.00 0.00 67 1012.5
20180423204903 21 281 3.2 12.9 0.00 0.00 0.00 67 1012.5
20180423204403 21 311 3.2 9.7 0.00 0.00 0.00 67 1012.4
20180423203903 21 311 0.0 0.0 0.00 0.00 0.00 67 1012.3
20180423203403 21 311 1.6 8.0 0.00 0.00 0.00 67 1012.3
20180423202903 22 311 1.6 4.8 0.00 0.00 0.00 67 1012.3
20180423202403 22 311 1.6 9.7 0.00 0.00 0.00 66 1012.3
20180423201903 22 311 0.0 9.7 0.00 0.00 0.00 66 1012.3
20180423201404 22 311 4.8 11.3 0.00 0.00 0.00 66 1012.2
20180423200903 22 311 4.8 9.7 0.00 0.00 0.00 66 1012.2
20180423200403 22 311 3.2 9.7 0.00 0.00 0.00 65 1012.2
20180423195904 22 311 1.6 9.7 0.00 0.00 0.00 65 1012.1
20180423195403 22 311 1.6 4.8 0.00 0.00 0.00 64 1012.1
20180423194904 22 311 3.2 8.0 0.00 0.00 0.00 63 1012.1
20180423194403 23 311 3.2 12.9 0.00 0.00 0.00 62 1012.0
20180423193903 23 324 4.8 9.7 0.00 0.00 0.00 61 1011.9
20180423193403 23 298 4.8 11.3 0.00 0.00 0.00 59 1011.9
20180423192903 23 327 3.2 9.7 0.00 0.00 0.00 57 1012.0
20180423192403 24 301 0.0 8.0 0.00 0.00 0.00 54 1011.9
20180423191903 24 311 0.0 4.8 0.00 0.00 0.00 50 1011.8
20180423191403 25 22 0.0 9.7 0.00 0.00 0.00 46 1011.8
20180423190904 25 60 0.0 9.7 0.00 0.00 0.00 42 1011.7
20180423190403 25 74 0.0 0.0 0.00 0.00 0.00 42 1011.7
20180423185904 25 74 0.0 0.0 0.00 0.00 0.00 41 1011.7
20180423185403 26 74 0.0 8.0 0.00 0.00 0.00 40 1011.7
20180423184903 26 28 0.0 8.0 0.00 0.00 0.00 40 1011.6
20180423184403 26 29 3.2 9.7 0.00 0.00 0.00 40 1011.5
20180423183903 26 48 3.2 12.9 0.00 0.00 0.00 41 1011.4
20180423183403 26 28 0.0 8.0 0.00 0.00 0.00 42 1011.4
20180423182903 26 22 0.0 1.6 0.00 0.00 0.00 43 1011.4
20180423182403 26 3 0.0 0.0 0.00 0.00 0.00 44 1011.4
20180423181903 26 5 0.0 8.0 0.00 0.00 0.00 44 1011.3
20180423181404 26 0 0.0 1.6 0.00 0.00 0.00 43 1011.2
20180423180903 26 57 0.0 0.0 0.00 0.00 0.00 43 1011.2
20180423180403 26 51 1.6 4.8 0.00 0.00 0.00 43 1011.2
20180423175903 26 16 0.0 3.2 0.00 0.00 0.00 43 1011.2
20180423175404 26 90 1.6 4.8 0.00 0.00 0.00 43 1011.2
20180423174903 26 90 1.6 9.7 0.00 0.00 0.00 43 1011.2
20180423174403 26 79 3.2 11.3 0.00 0.00 0.00 42 1011.2
20180423173903 26 94 11.3 16.1 0.00 0.00 0.00 41 1011.3
20180423173403 26 99 8.0 12.9 0.00 0.00 0.00 41 1011.3
20180423172904 27 81 1.6 9.7 0.00 0.00 0.00 39 1011.2
20180423172404 26 103 4.8 14.5 0.00 0.00 0.00 40 1011.3
20180423171903 26 108 3.2 12.9 0.00 0.00 0.00 39 1011.3
20180423171403 26 98 4.8 11.3 0.00 0.00 0.00 40 1011.3
20180423170904 26 98 8.0 14.5 0.00 0.03 0.00 39 1011.3
20180423170403 26 347 3.2 14.5 0.00 0.03 0.00 39 1011.3
20180423165903 27 140 4.8 11.3 0.00 0.03 0.00 38 1011.4
20180423165403 27 209 1.6 8.0 0.00 0.03 0.00 39 1011.5
20180423164903 27 8 1.6 9.7 0.00 0.03 0.00 38 1011.5
20180423164403 27 57 1.6 8.0 0.00 0.03 0.00 37 1011.5
20180423163903 27 135 3.2 12.9 0.00 0.03 0.00 37 1011.4
20180423163404 27 25 4.8 22.5 0.00 0.03 0.00 37 1011.5
20180423162903 27 33 9.7 32.2 0.00 0.03 0.00 37 1011.5
20180423162403 27 58 6.4 19.3 0.00 0.03 0.00 38 1011.5
20180423161903 26 79 3.2 11.3 0.00 0.03 0.00 40 1011.4
20180423161403 26 97 3.2 16.1 0.00 0.03 0.00 40 1011.5
20180423160903 26 121 9.7 19.3 0.00 0.03 0.00 39 1011.6
20180423160404 26 119 9.7 22.5 0.00 0.03 0.00 39 1011.6